Location: Fountain Hills
(33.6120°N, 111.7170°W)
Time: 16:35:48
(UTC-07:00)

Hamsat - Visible Passes

Search period start: 17 September 2014 00:00
Search period end: 27 September 2014 00:00
Orbit: 594 x 628 km, 97.6° (Epoch: 16 September)

Date Brightness Start Highest point End Pass type
(mag) Time Alt. Az. Time Alt. Az. Time Alt. Az.
17 Sep ? 05:29:39 10° NE 05:32:48 20° E 05:35:55 10° SE visible
18 Sep ? 05:43:39 10° NE 05:47:24 30° E 05:51:05 10° SSE visible
21 Sep ? 18:54:20 10° WSW 18:56:07 12° W 18:57:54 10° WNW visible
22 Sep ? 05:08:33 10° E 05:09:16 10° E 05:10:00 10° ESE visible
23 Sep ? 05:21:17 10° NE 05:23:54 16° E 05:26:30 10° SE visible
24 Sep ? 05:35:04 10° NE 05:38:30 24° E 05:41:53 10° SSE visible
25 Sep ? 05:49:10 10° NNE 05:53:04 36° E 05:56:54 10° SSE visible
